EDW5L KTPA-LSZH

Flight info

Callsign EDW5L
Flight time N/A
Altitude 37000
Route BAYPO2 CAMJO DCT AMG DCT FLO DCT ORF DCT ZIBUT DCT LARGE DCT SLATN/M079F370 NATY 43N040W/M079F390 45N030W 4630N02000W 47N015W DCT ETIKI DCT REGHI/N0446F390 DCT OZNOH/N0449F400 DCT BULOX DCT TABOV/N0453F410 DCT RESMI DCT TEPRI DCT POGZI DCT GELTA DCT MANAG DCT PEVIT DCT BLM
Aircraft A343/H-SDE2E3FGHIJ4J5M1RWXY/LB1D1

Departure

Time N/A
Airport Tampa International Airport (KTPA)

Arrival

Time 2026-04-26 10:27
Airport Zürich Airport (LSZH)
Time Latitude Longitude Altitude Speed Heading
2026-04-26 10:17 47.58136 7.71941 17115 ft 384 kts 109°
2026-04-26 10:17 47.57275 7.75603 16621 ft 367 kts 109°
2026-04-26 10:18 47.56449 7.79120 15679 ft 357 kts 109°
2026-04-26 10:18 47.55634 7.82564 14349 ft 361 kts 109°
2026-04-26 10:18 47.54803 7.86077 13066 ft 360 kts 109°
2026-04-26 10:18 47.53983 7.89548 11896 ft 354 kts 108°
2026-04-26 10:19 47.53208 7.92980 10771 ft 349 kts 107°
2026-04-26 10:19 47.52505 7.96369 10162 ft 329 kts 105°
2026-04-26 10:19 47.51904 7.99497 9708 ft 306 kts 104°
2026-04-26 10:19 47.51374 8.02472 9081 ft 293 kts 103°
2026-04-26 10:20 47.50903 8.05321 8378 ft 285 kts 102°
2026-04-26 10:20 47.50542 8.08161 7661 ft 278 kts 94°
2026-04-26 10:20 47.50641 8.10986 6973 ft 274 kts 78°
2026-04-26 10:20 47.51183 8.13690 6279 ft 268 kts 71°
2026-04-26 10:21 47.51794 8.16218 5653 ft 261 kts 70°
2026-04-26 10:21 47.52438 8.18766 4903 ft 259 kts 70°
2026-04-26 10:21 47.53056 8.21175 4604 ft 250 kts 70°
2026-04-26 10:21 47.53667 8.23546 4500 ft 242 kts 69°
2026-04-26 10:22 47.54260 8.25840 4410 ft 234 kts 69°
2026-04-26 10:22 47.54830 8.28048 4351 ft 226 kts 69°
2026-04-26 10:22 47.55375 8.30194 4280 ft 218 kts 70°
2026-04-26 10:22 47.55907 8.32274 4254 ft 213 kts 70°
2026-04-26 10:23 47.56426 8.34300 4059 ft 208 kts 70°
2026-04-26 10:23 47.56939 8.36280 3995 ft 204 kts 69°
2026-04-26 10:23 47.57447 8.38225 3999 ft 203 kts 70°
2026-04-26 10:23 47.57589 8.40215 4000 ft 188 kts 104°
2026-04-26 10:24 47.57003 8.41827 3908 ft 175 kts 130°
2026-04-26 10:24 47.56062 8.42974 3591 ft 178 kts 140°
2026-04-26 10:24 47.55117 8.44128 3322 ft 173 kts 135°
2026-04-26 10:24 47.54278 8.45351 3095 ft 163 kts 132°
2026-04-26 10:25 47.53470 8.46444 2877 ft 156 kts 135°
2026-04-26 10:25 47.52670 8.47505 2632 ft 152 kts 135°
2026-04-26 10:25 47.51910 8.48527 2393 ft 143 kts 132°
2026-04-26 10:25 47.51204 8.49509 2174 ft 138 kts 130°
2026-04-26 10:26 47.50493 8.50500 2074 ft 144 kts 133°
2026-04-26 10:26 47.49752 8.51518 1880 ft 146 kts 133°
2026-04-26 10:26 47.49008 8.52516 1685 ft 146 kts 133°
2026-04-26 10:26 47.48256 8.53540 1460 ft 145 kts 134°
2026-04-26 10:27 47.47577 8.54475 1408 ft 114 kts 137°
2026-04-26 10:27 47.47114 8.55101 1402 ft 61 kts 137°
2026-04-26 10:27 47.46873 8.55430 1406 ft 35 kts 138°
2026-04-26 10:27 47.46711 8.55624 1406 ft 29 kts 152°
2026-04-26 10:28 47.46520 8.55703 1404 ft 28 kts 167°
2026-04-26 10:28 47.46345 8.55806 1413 ft 25 kts 137°
2026-04-26 10:28 47.46227 8.55972 1417 ft 18 kts 138°
2026-04-26 10:28 47.46125 8.55994 1414 ft 14 kts 186°
2026-04-26 10:29 47.46024 8.55979 1411 ft 15 kts 186°
2026-04-26 10:29 47.45918 8.55943 1418 ft 16 kts 201°
2026-04-26 10:29 47.45829 8.55894 1419 ft 13 kts 200°
2026-04-26 10:29 47.45741 8.55871 1417 ft 14 kts 187°
2026-04-26 10:30 47.45647 8.55833 1419 ft 11 kts 230°
2026-04-26 10:30 47.45646 8.55752 1418 ft 9 kts 275°
2026-04-26 10:30 47.45653 8.55643 1411 ft 12 kts 275°
2026-04-26 10:30 47.45663 8.55508 1413 ft 15 kts 277°
2026-04-26 10:31 47.45676 8.55342 1411 ft 18 kts 276°
2026-04-26 10:31 47.45649 8.55209 1406 ft 9 kts 182°
2026-04-26 10:31 47.45591 8.55241 1409 ft 9 kts 156°
2026-04-26 10:31 47.45533 8.55279 1412 ft 9 kts 156°
2026-04-26 10:32 47.45475 8.55318 1413 ft 9 kts 155°
2026-04-26 10:32 47.45416 8.55358 1408 ft 9 kts 155°
2026-04-26 10:32 47.45358 8.55399 1412 ft 9 kts 154°
2026-04-26 10:32 47.45297 8.55441 1412 ft 10 kts 155°
2026-04-26 10:33 47.45226 8.55489 1415 ft 15 kts 155°
2026-04-26 10:33 47.45108 8.55570 1414 ft 23 kts 155°
2026-04-26 10:33 47.44989 8.55653 1411 ft 10 kts 152°
2026-04-26 10:33 47.44960 8.55731 1413 ft 8 kts 108°
2026-04-26 10:34 47.44952 8.55816 1410 ft 6 kts 84°
2026-04-26 10:34 47.44960 8.55833 1415 ft 0 kts 57°
2026-04-26 10:34 47.44965 8.55841 1415 ft 3 kts 47°
2026-04-26 10:34 47.44980 8.55846 1409 ft 3 kts 11°
2026-04-26 10:35 47.45015 8.55853 1417 ft 8 kts
2026-04-26 10:35 47.45036 8.55857 1417 ft 0 kts